FENGYUN 1C DEB, 35144

Orbit data source: Space-Track

FENGYUN 1C DEB, 35144 is space debris in SSO originally from a launch on Mon, 10 May 1999 UTC launched from the Taiyaun Space Center, China (TSC). Fengyun 1C debris stems from the Chinese weather satellite Fengyun-1C, which was intentionally destroyed by a Chinese anti-satellite missile in 2007. This event dramatically increased the amount of space debris, with thousands of trackable fragments posing hazards to satellites and human spaceflight. The Fengyun 1C debris cloud has become a focal point in discussions about space sustainability and the need for international regulations to prevent the creation of new debris.

Loading next visibility...
Identifier
35144, 1999-025DLY
Orbit
SSO
Country
Flag of CNCN / PRC
Related business
Manufacturer
Unknown
Mission
Spacecraft
Bus & Motor
Unknown
Mass
Unknown
Launch date (UTC)
1999-05-10 (27 years ago)
Launch vehicle
Unknown
Launch site
Taiyaun Space Center, China (TSC)
Object type
Payload
Rocket body
Debris
Shape & HBR
Unknown shape, 0.1 m
Radar Cross Section
Small (<0.1 m²)

Expand to show TLE details & history
Last TLE update: 2 days ago

TLE from 2 days ago
0 FENGYUN 1C DEB
1 35144U 99025DLY 26120.80460498  .00010802  00000-0  20942-2 0  9992
2 35144  98.7042 248.2988 0024339 293.7417  66.1230 14.63257038672444
Epoch: 2026-04-30T19:18Z
TLE epoch observation values (Epoch: 2026-04-30T19:18:37.870Z)
Latitude
-0.00006°
Longitude
99.89507°
Altitude
678.728 km
Speed
7.521 km/s
True Right ascension
16h 33m 11s
True Declination
0° 00' 00"
Sunlit
Object was in full shadow at epoch
Visualization orbit readout
Latitude
Unknown
Longitude
Unknown
Altitude
Unknown
Speed
Unknown
Apparent Right ascension
Unknown
Apparent Declination
Unknown
Sunlit
N/A
Visualization observer readout
Local Sidereal Time
07:30:50
Azimuth
Unknown
Elevation
Unknown
Doppler factor
Unknown
Orbital elements
Apogee altitude
696.956 km
Perigee altitude
662.599 km
Semi-major axis
7,057.915 km
Eccentricity
0.00243
Inclination
98.7042°
RAAN
248.2988°
Arg. of periapsis
293.7417°
True anomaly
66.37835°
Mean anomaly
66.123°
Eccentric anomaly
66.25064°
Mean motion
3.6604 °/min
Orbital period
98.35 mins
BSTAR
0.0020942
Loading maneuver chart data...
Computing Atmospheric mass density...

Documentation

Showing up to 5 results
|